Regional Weather Roundup
Issued by NWS

Home | Current Version | Previous Version | Graphics & Text | Print | Product List | Glossary Off
Versions: 1 2 3 4 5 6 7 8 9 10 11 12 13 14 15 16 17 18 19 20 21 22 23 24 25 26 27 28 29 30 31 32 33 34 35 36 37 38 39 40 41 42 43 44 45 46 47 48 49 50

000
ASUS43 KTOP 251308
RWRKS

WEATHER ROUNDUP FOR KANSAS
NATIONAL WEATHER SERVICE GOODLAND KS
800 AM CDT SUN JUN 25 2017

NOTE:  "FAIR" INDICATES FEW OR NO CLOUDS BELOW 12,000 FEET WITH NO
SIGNIFICANT WEATHER AND/OR OBSTRUCTIONS TO VISIBILITY.

KSZ001>006-013>018-027>032-041>047-251400-
NORTHWEST KANSAS

CITY           SKY/WX    TMP DP  RH WIND       PRES   REMARKS
GOODLAND       MOSUNNY   56  55  97 SE8       30.31S
HAYS           CLOUDY    60  54  80 NE9       30.31R
HILL CITY      MOSUNNY   60  55  83 E7        30.31F
RUSSELL        CLOUDY    60  54  80 E8        30.29S
$$

KSZ061>065-074>080-084>089-251400-
SOUTHWEST KANSAS

CITY           SKY/WX    TMP DP  RH WIND       PRES   REMARKS
DODGE CITY     CLOUDY    64  56  75 N8        30.32R
ELKHART          N/A     64  52  65 SE7         N/A
GARDEN CITY    CLOUDY    59  54  83 NE9       30.32R
GREAT BEND     PTSUNNY   63  58  83 S8        30.29F
LIBERAL        CLOUDY    69  56  62 S10       30.31R
PRATT          CLOUDY    62  53  71 NE6       30.32R
$$

KSZ066>073-081>083-090>101-251400-
SOUTHEAST KANSAS

CITY           SKY/WX    TMP DP  RH WIND       PRES   REMARKS
CHANUTE        CLOUDY    70  53  54 CALM      30.28R
COFFEYVILLE    SUNNY     68  59  73 CALM      30.27R
HUTCHINSON     CLOUDY    65  53  65 SE3       30.29R
MEDICINE LODGE   N/A     67  55  65 E5        30.28S
NEWTON         SUNNY     66  53  63 SE7       30.30R
PARSONS        MOSUNNY   68  57  68 CALM      30.29R
WICHITA INTL   CLOUDY    69  56  62 S5        30.29R
WICHITA JABRA  SUNNY     68  56  65 SE5       30.29R
WICHITA MCCONL CLOUDY    70  54  56 SE5       30.29R
WINFIELD       SUNNY     67  58  72 SE3       30.29R
$$

KSZ007>012-019>026-033>040-048>060-102>105-251400-
NORTHEAST KANSAS

CITY           SKY/WX    TMP DP  RH WIND       PRES   REMARKS
CONCORDIA      CLOUDY    58  49  72 NE7       30.32R
EMPORIA        SUNNY     64  59  83 CALM      30.29R
LAWRENCE       SUNNY     66  56  70 NW9       30.29R
MANHATTAN      MOSUNNY   64  54  69 N6        30.31R
MARYSVILLE     MOSUNNY   59  50  72 CALM      30.34R
OLATHE IND     SUNNY     66  53  63 NW13      30.29R
OLATHE EXE     SUNNY     65  53  65 NW8       30.28R
SALINA         CLOUDY    67  58  72 S3        30.30R
TOPEKA BILLARD SUNNY     66  55  67 NW6       30.29R
TOPEKA FORBES  SUNNY     67  55  65 N13       30.29S
$$




USA.gov is the U.S. government's official web portal to all federal, state and local government web resources and services.